This is the latest recevied weather packets stored in our database for station/object LX0APE-4. If no packets are shown the sender has not sent any weather packets the latest 10 day(s).
| Time | Temp. | Humidity | Pressure | Rain* | Wind** | Luminosity | Snow |
|---|---|---|---|---|---|---|---|
| 1777852916 | 11.67° C | 69% | 5010.3 hPa | 0 mm | - | - | - |
| 1777852616 | 11.67° C | 69% | 5010.4 hPa | 0 mm | - | - | - |
| 1777852316 | 11.67° C | 69% | 5010.7 hPa | 0 mm | - | - | - |
| 1777852016 | -21.11° C | 69% | 5010.5 hPa | 0 mm | - | - | - |
| 1777851716 | 11.67° C | 69% | 5010.5 hPa | 0 mm | - | - | - |
| 1777851420 | 11.67° C | 70% | 5010.5 hPa | 0 mm | - | - | - |
| 1777851416 | 11.67° C | 70% | 5010.5 hPa | 0 mm | - | - | - |
| 1777851116 | 11.67° C | 70% | 5010.5 hPa | 0 mm | - | - | - |
| 1777850816 | 11.67° C | 70% | 5010.5 hPa | 0 mm | - | - | - |
| 1777850516 | 11.67° C | 70% | 5010.4 hPa | 0 mm | - | - | - |
| 1777850216 | 11.67° C | 69% | 5010.6 hPa | 0 mm | - | - | - |
| 1777849916 | 12.22° C | 69% | 5010.5 hPa | 0 mm | - | - | - |
| 1777849616 | 12.22° C | 69% | 5010.5 hPa | 0 mm | - | - | - |
| 1777849316 | 12.22° C | 70% | 5010.4 hPa | 0 mm | - | - | - |
| 1777849016 | 11.67° C | 69% | 5010.5 hPa | 0 mm | - | - | - |
| 1777848716 | 12.22° C | 69% | 5010.6 hPa | 0 mm | - | - | - |
| 1777848416 | 12.22° C | 69% | 5010.6 hPa | 0 mm | - | - | - |
| 1777848116 | 12.22° C | 68% | 5010.6 hPa | 0 mm | - | - | - |
| 1777847816 | 12.22° C | 68% | 5010.8 hPa | 0 mm | - | - | - |
| 1777847516 | 12.78° C | 68% | 5010.7 hPa | 0 mm | - | - | - |
| 1777847216 | 12.78° C | 68% | 5010.6 hPa | 0 mm | - | - | - |
| 1777846916 | 12.78° C | 68% | 5010.6 hPa | 0 mm | - | - | - |
| 1777846616 | 12.78° C | 68% | 5010.5 hPa | 0 mm | - | - | - |
| 1777846316 | 12.78° C | 69% | 5010.5 hPa | 0 mm | - | - | - |
| 1777846016 | 12.78° C | 68% | 5010.5 hPa | 0 mm | - | - | - |
* Rain latest hour (hover to see other rain measurements)
** Current wind speed in m/s (hover to see current wind gust speed)